Date String (YYYY-MM-DD hh:mm:ss) UTC,Instrument flags,absolute air pressure of the measurement (hPa),sample flow rate (lpm),inlet stack bypass flow (lpm),air temperature of the measurement (°C),ambient temperature measured by the external sensor (°C),aerosol sample conditioner tube jacket temperature (°C),OPC LED temperature (°C),internal box temperature (°C),relative humidity of the measurement (%),span deviation,mass concentration of particles derived from Lorenz-Mie calculation of OPC scattering (μg/m³),mass concentration of particles derived from Lorenz-Mie calculation of OPC scattering (μg/m³),mass concentration of particles derived from Lorenz-Mie calculation of OPC scattering (μg/m³)
DateTimeUTC,F1_M11,P_M11,Q1_M11,Q2_M11,T1_M11,T2_M11,T3_M11,T4_M11,T5_M11,U1_M11,ZSPAN_M11,X0_M11,X2_M11,X1_M11
2024-06-06 00:00:00,SystemResetWarning,0827.2,4.99,000.00,028.5,026.3,000.0,037.2,029.7,018.1,0000.0,0007.02,0001.37,0000.81
2024-06-06 00:01:00,SystemResetWarning,0827.2,4.99,000.00,028.6,026.8,000.0,037.1,030.0,018.1,0000.0,0005.35,0001.42,0000.82
2024-06-06 00:02:00,SystemResetWarning,0827.2,5.01,000.00,028.6,027.3,000.0,037.1,030.3,017.9,0000.0,0005.12,0001.49,0000.83
2024-06-06 00:03:00,SystemResetWarning,0827.2,5.00,000.00,028.7,027.7,000.0,037.1,030.5,017.8,0000.0,0005.21,0001.52,0000.84
2024-06-06 00:04:00,SystemResetWarning,0827.2,4.99,000.00,028.8,028.1,000.0,037.1,030.6,017.6,0000.0,0005.11,0001.54,0000.84
2024-06-06 00:05:00,SystemResetWarning,0827.2,4.99,000.00,028.9,028.4,000.0,037.1,030.8,017.0,0000.0,0005.03,0001.56,0000.84
2024-06-06 00:06:00,SystemResetWarning,0827.2,5.01,000.00,029.0,028.7,000.0,037.1,030.9,016.8,0000.0,0006.83,0001.61,0000.85
2024-06-06 00:07:00,SystemResetWarning,0827.3,5.00,000.00,029.1,028.9,000.0,037.2,031.0,016.5,0000.0,0006.71,0001.63,0000.86
2024-06-06 00:08:00,SystemResetWarning,0827.3,5.00,000.00,029.2,029.0,000.0,037.2,031.0,016.8,0000.0,0006.07,0001.60,0000.85
2024-06-06 00:09:00,SystemResetWarning,0827.3,4.99,000.00,029.1,027.4,000.0,037.3,030.3,017.2,0000.0,0005.91,0001.60,0000.85
2024-06-06 00:10:00,SystemResetWarning,0827.2,5.01,000.00,028.7,025.5,000.0,037.3,029.4,017.7,0000.0,0005.90,0001.59,0000.84
2024-06-06 00:11:00,SystemResetWarning,0827.1,5.01,000.00,028.5,025.8,000.0,037.3,029.4,017.7,0000.0,0004.93,0001.62,0000.85
2024-06-06 00:12:00,SystemResetWarning,0827.2,4.99,000.00,028.5,026.3,000.0,037.1,029.7,017.8,0000.0,0004.89,0001.63,0000.84
2024-06-06 00:13:00,SystemResetWarning,0827.3,5.00,000.00,028.5,026.8,000.0,037.1,030.0,017.8,0000.0,0004.89,0001.59,0000.84
2024-06-06 00:14:00,SystemResetWarning,0827.2,5.00,000.00,028.6,027.2,000.0,037.0,030.2,017.7,0000.0,0004.87,0001.59,0000.85
2024-06-06 00:15:00,SystemResetWarning,0827.2,5.00,000.00,028.7,027.7,000.0,037.0,030.4,017.4,0000.0,0004.76,0001.54,0000.85
2024-06-06 00:16:00,SystemResetWarning,0827.3,5.00,000.00,028.8,028.0,000.0,037.0,030.6,017.1,0000.0,0004.59,0001.54,0000.85
2024-06-06 00:17:00,SystemResetWarning,0827.3,5.00,000.00,028.9,028.3,000.0,037.1,030.7,017.4,0000.0,0002.98,0001.52,0000.85
2024-06-06 00:18:00,SystemResetWarning,0827.3,5.00,000.00,029.0,028.6,000.0,037.1,030.8,017.7,0000.0,0004.08,0001.53,0000.85
2024-06-06 00:19:00,SystemResetWarning,0827.3,5.00,000.00,029.0,028.8,000.0,037.1,031.0,017.3,0000.0,0004.92,0001.57,0000.86
2024-06-06 00:20:00,SystemResetWarning,0827.2,4.99,000.00,029.1,028.7,000.0,037.2,030.9,017.3,0000.0,0005.60,0001.62,0000.86
2024-06-06 00:21:00,SystemResetWarning,0827.2,4.99,000.00,028.9,026.7,000.0,037.2,029.9,017.3,0000.0,0006.00,0001.64,0000.87
2024-06-06 00:22:00,SystemResetWarning,0827.2,5.02,000.00,028.6,025.4,000.0,037.2,029.3,017.5,0000.0,0006.27,0001.66,0000.87
2024-06-06 00:23:00,SystemResetWarning,0827.2,5.00,000.00,028.5,026.0,000.0,037.2,029.5,017.5,0000.0,0006.11,0001.63,0000.88
2024-06-06 00:24:00,SystemResetWarning,0827.2,5.00,000.00,028.5,026.5,000.0,037.1,029.8,017.5,0000.0,0006.06,0001.64,0000.88
2024-06-06 00:25:00,SystemResetWarning,0827.2,5.00,000.00,028.5,027.0,000.0,037.0,030.1,017.5,0000.0,0006.01,0001.62,0000.86
2024-06-06 00:26:00,SystemResetWarning,0827.3,5.01,000.00,028.6,027.4,000.0,037.0,030.3,017.3,0000.0,0006.02,0001.62,0000.86
2024-06-06 00:27:00,SystemResetWarning,0827.3,5.00,000.00,028.7,027.8,000.0,037.0,030.5,017.4,0000.0,0006.25,0001.63,0000.86
2024-06-06 00:28:00,SystemResetWarning,0827.4,5.00,000.00,028.8,028.1,000.0,037.0,030.6,016.9,0000.0,0007.29,0001.60,0000.85
2024-06-06 00:29:00,SystemResetWarning,0827.4,4.99,000.00,028.9,028.4,000.0,037.0,030.8,017.4,0000.0,0007.48,0001.59,0000.85
2024-06-06 00:30:00,SystemResetWarning,0827.4,4.99,000.00,029.0,028.7,000.0,037.1,030.9,017.4,0000.0,0006.92,0001.55,0000.84
2024-06-06 00:31:00,SystemResetWarning,0827.4,4.99,000.00,029.1,028.9,000.0,037.1,031.0,017.5,0000.0,0007.24,0001.54,0000.84
2024-06-06 00:32:00,SystemResetWarning,0827.3,5.00,000.00,029.1,028.3,000.0,037.2,030.7,016.9,0000.0,0007.55,0001.54,0000.84
2024-06-06 00:33:00,SystemResetWarning,0827.3,5.00,000.00,028.8,026.0,000.0,037.2,029.6,016.7,0000.0,0007.56,0001.57,0000.85
2024-06-06 00:34:00,SystemResetWarning,0827.3,5.02,000.00,028.5,025.4,000.0,037.2,029.3,017.4,0000.0,0007.56,0001.55,0000.83
2024-06-06 00:35:00,SystemResetWarning,0827.4,5.00,000.00,028.4,026.0,000.0,037.1,029.6,017.8,0000.0,0007.66,0001.51,0000.84
2024-06-06 00:36:00,SystemResetWarning,0827.4,5.00,000.00,028.5,026.5,000.0,037.0,029.9,017.8,0000.0,0008.27,0001.56,0000.84
2024-06-06 00:37:00,SystemResetWarning,0827.4,5.01,000.00,028.5,027.0,000.0,037.0,030.1,017.2,0000.0,0008.86,0001.61,0000.85
2024-06-06 00:38:00,SystemResetWarning,0827.4,5.01,000.00,028.6,027.5,000.0,037.0,030.3,017.3,0000.0,0008.75,0001.61,0000.85
2024-06-06 00:39:00,SystemResetWarning,0827.4,4.99,000.00,028.7,027.8,000.0,037.0,030.5,017.3,0000.0,0008.83,0001.66,0000.85
2024-06-06 00:40:00,SystemResetWarning,0827.4,5.00,000.00,028.8,028.2,000.0,037.0,030.6,017.1,0000.0,0008.52,0001.67,0000.85
2024-06-06 00:41:00,SystemResetWarning,0827.4,5.00,000.00,028.9,028.4,000.0,037.0,030.8,017.3,0000.0,0009.12,0001.68,0000.85
2024-06-06 00:42:00,SystemResetWarning,0827.4,5.01,000.00,029.0,028.7,000.0,037.1,030.9,017.4,0000.0,0008.53,0001.66,0000.85
2024-06-06 00:43:00,SystemResetWarning,0827.4,5.01,000.00,029.1,028.9,000.0,037.1,031.0,017.5,0000.0,0008.02,0001.64,0000.84
2024-06-06 00:44:00,SystemResetWarning,0827.4,5.00,000.00,029.2,028.8,000.0,037.2,030.9,017.2,0000.0,0008.66,0001.56,0000.83
2024-06-06 00:45:00,SystemResetWarning,0827.4,4.98,000.00,029.0,026.8,000.0,037.2,029.9,017.0,0000.0,0008.68,0001.61,0000.84
2024-06-06 00:46:00,SystemResetWarning,0827.3,5.03,000.00,028.6,025.4,000.0,037.2,029.3,017.1,0000.0,0008.54,0001.60,0000.83
2024-06-06 00:47:00,SystemResetWarning,0827.3,5.00,000.00,028.5,026.0,000.0,037.2,029.5,017.5,0000.0,0008.12,0001.58,0000.84
2024-06-06 00:48:00,SystemResetWarning,0827.4,5.00,000.00,028.5,026.4,000.0,037.1,029.8,017.5,0000.0,0007.35,0001.56,0000.84
2024-06-06 00:49:00,SystemResetWarning,0827.4,5.01,000.00,028.5,026.9,000.0,037.0,030.1,017.6,0000.0,0007.46,0001.58,0000.84
2024-06-06 00:50:00,SystemResetWarning,0827.4,5.00,000.00,028.6,027.4,000.0,037.0,030.3,017.6,0000.0,0006.89,0001.58,0000.84
2024-06-06 00:51:00,SystemResetWarning,0827.4,5.00,000.00,028.7,027.8,000.0,037.0,030.5,017.3,0000.0,0006.06,0001.54,0000.84
2024-06-06 00:52:00,SystemResetWarning,0827.4,5.00,000.00,028.8,028.1,000.0,037.0,030.6,017.4,0000.0,0005.03,0001.54,0000.85
2024-06-06 00:53:00,SystemResetWarning,0827.4,5.00,000.00,028.9,028.4,000.0,037.0,030.8,017.1,0000.0,0005.18,0001.51,0000.84
2024-06-06 00:54:00,SystemResetWarning,0827.4,5.00,000.00,029.0,028.6,000.0,037.1,030.9,016.5,0000.0,0005.35,0001.50,0000.85
2024-06-06 00:55:00,SystemResetWarning,0827.4,5.00,000.00,029.1,028.9,000.0,037.1,031.0,016.7,0000.0,0004.18,0001.55,0000.86
2024-06-06 00:56:00,SystemResetWarning,0827.4,5.00,000.00,029.2,029.0,000.0,037.2,031.1,016.6,0000.0,0004.27,0001.52,0000.86
2024-06-06 00:57:00,SystemResetWarning,0827.4,4.99,000.00,029.2,028.6,000.0,037.2,030.9,016.2,0000.0,0004.57,0001.62,0000.86
2024-06-06 00:58:00,SystemResetWarning,0827.4,4.99,000.00,028.9,026.2,000.0,037.3,029.7,016.9,0000.0,0004.71,0001.61,0000.86
2024-06-06 00:59:00,SystemResetWarning,0827.4,5.02,000.00,028.5,025.4,000.0,037.3,029.2,017.5,0000.0,0005.66,0001.57,0000.85
